Weather History for KLLQ - January, 2013

Change the Weather History Date:

Thursday, January 3, 2013

  Actual Average Record
Temperature  
Mean Temperature 36 °F -  
Max Temperature 46 °F 49 °F 75 °F (2000)
Min Temperature 27 °F 30 °F 9 °F (2001)
Degree Days  
Heating Degree Days 28    
Moisture  
Dew Point 28 °F    
Average Humidity 73    
Maximum Humidity 92    
Minimum Humidity 46    
Precipitation  
Precipitation 0.00 in - - ()
Sea Level Pressure  
Sea Level Pressure 30.39 in    
Wind  
Wind Speed 2 mph (North)    
Max Wind Speed 10 mph    
Max Gust Speed -    
Visibility 10 miles    
Events      
Averages and records for this station are not official NWS values.
T = Trace of Precipitation, MM = Missing Value Source: NWS Daily Summary

Daily Weather History Graph

Daily Weather History Graph

Search for Another Location

Airport or City:

Trip Planner

Search our weather history database for the weather conditions in past years. The results will help you decide how hot, cold, wet, or windy it might be!

Date:

Astronomy

Jan. 03, 2013 Rise Set
Actual Time 7:11 AM CST 5:11 PM CST
Civil Twilight 6:44 AM CST 5:39 PM CST
Nautical Twilight 6:13 AM CST 6:10 PM CST
Astronomical Twilight 5:43 AM CST 6:40 PM CST
Moon 11:26 PM CST (1/3) 10:42 AM CST (1/3)
Length of Visible Light 10h 54m
Length of Day
9h 59m
Waning Gibbous, 65% of the Moon is Illuminated
Jan 3
Waning Gibbous
Jan 4
Last Quarter
Jan 11
New
Jan 18
First Quarter
Jan 26
Full

Hourly Weather History & Observations

Time (CST) Temp. Windchill Dew Point Humidity Pressure Visibility Wind Dir Wind Speed Gust Speed Precip Events Conditions
12:53 AM 32.0 °F - 28.0 °F 85% 30.30 in 10.0 mi Calm Calm - N/A   Clear
1:53 AM 32.0 °F - 28.9 °F 88% 30.31 in 10.0 mi Calm Calm - N/A   Clear
2:53 AM 32.0 °F - 28.9 °F 88% 30.32 in 10.0 mi Calm Calm - N/A   Clear
3:53 AM 30.9 °F - 28.0 °F 89% 30.33 in 10.0 mi Calm Calm - N/A   Clear
4:53 AM 28.9 °F - 27.0 °F 92% 30.34 in 8.0 mi Calm Calm - N/A   Clear
5:53 AM 28.0 °F - 26.1 °F 92% 30.35 in 8.0 mi Calm Calm - N/A   Clear
6:53 AM 27.0 °F - 25.0 °F 92% 30.35 in 7.0 mi Calm Calm - N/A   Clear
7:53 AM 28.0 °F - 25.0 °F 88% 30.39 in 8.0 mi Calm Calm - N/A   Clear
8:53 AM 35.1 °F 30.1 °F 28.9 °F 78% 30.40 in 10.0 mi NW 5.8 mph - N/A   Clear
9:53 AM 39.0 °F 35.7 °F 28.0 °F 65% 30.43 in 10.0 mi Variable 4.6 mph - N/A   Clear
10:53 AM 42.1 °F 38.4 °F 27.0 °F 55% 30.43 in 10.0 mi NNE 5.8 mph - N/A   Clear
11:53 AM 44.1 °F 38.6 °F 26.1 °F 49% 30.40 in 10.0 mi NW 10.4 mph - N/A   Clear
12:53 PM 44.1 °F 42.5 °F 25.0 °F 47% 30.38 in 10.0 mi Variable 3.5 mph - N/A   Clear
1:53 PM 46.0 °F 43.1 °F 26.1 °F 46% 30.35 in 10.0 mi Variable 5.8 mph - N/A   Clear
2:53 PM 46.0 °F 41.9 °F 26.1 °F 46% 30.38 in 10.0 mi North 8.1 mph - N/A   Clear
3:53 PM 45.0 °F 41.2 °F 28.0 °F 52% 30.36 in 10.0 mi NE 6.9 mph - N/A   Clear
4:53 PM 43.0 °F 41.3 °F 28.9 °F 58% 30.40 in 10.0 mi NNE 3.5 mph - N/A   Clear
5:53 PM 39.0 °F - 30.0 °F 70% 30.42 in 10.0 mi Calm Calm - N/A   Clear
6:53 PM 37.0 °F - 30.0 °F 76% 30.43 in 10.0 mi Calm Calm - N/A   Clear
7:53 PM 37.9 °F - 30.0 °F 73% 30.44 in 10.0 mi Calm Calm - N/A   Clear
8:53 PM 37.0 °F - 30.0 °F 76% 30.44 in 10.0 mi Calm Calm - N/A   Clear
9:53 PM 37.9 °F - 30.9 °F 76% 30.44 in 10.0 mi Calm Calm - N/A   Clear
10:53 PM 36.0 °F - 30.9 °F 82% 30.45 in 10.0 mi Calm Calm - N/A   Clear
11:53 PM 33.1 °F - 30.0 °F 89% 30.43 in 10.0 mi Calm Calm - N/A   Clear